This is the latest recevied weather packets stored in our database for station/object T10BNorth. If no packets are shown the sender has not sent any weather packets the latest 1 day(s).
| Time | Temp. | Humidity | Pressure | Rain* | Wind** | Luminosity | Snow |
|---|---|---|---|---|---|---|---|
| 1778071986 | 12.78° C | 92% | 1007.3 hPa | 0 mm | - | 149 W/m² | - |
| 1778071926 | 12.78° C | 91% | 1007.2 hPa | 0 mm | - | 141 W/m² | - |
| 1778071808 | 12.78° C | 91% | 1007.2 hPa | 0 mm | - | 128 W/m² | - |
| 1778071745 | 12.78° C | 91% | 1007.2 hPa | 0 mm | - | 123 W/m² | - |
| 1778071622 | 12.78° C | 91% | 1007.1 hPa | 0 mm | - | 111 W/m² | - |
| 1778071317 | 12.78° C | 91% | 1007.2 hPa | 0 mm | - | 127 W/m² | - |
| 1778071067 | 12.78° C | 91% | 1007.1 hPa | 0 mm | - | 125 W/m² | - |
| 1778070880 | 12.78° C | 91% | 1007.1 hPa | 0 mm | - | 120 W/m² | - |
| 1778070698 | 12.78° C | 91% | 1007.1 hPa | 0 mm | - | 121 W/m² | - |
| 1778070261 | 12.78° C | 91% | 1006.9 hPa | 0 mm | - | 148 W/m² | - |
| 1778070198 | 12.78° C | 90% | 1007 hPa | 0 mm | - | 148 W/m² | - |
| 1778070103 | 12.78° C | 90% | 1007.2 hPa | 0 mm | - | 141 W/m² | - |
| 1778069832 | 12.78° C | 90% | 1007.2 hPa | 0 mm | - | 146 W/m² | - |
| 1778069717 | 12.78° C | 91% | 1007.2 hPa | 0 mm | - | 139 W/m² | - |
| 1778069650 | 12.78° C | 91% | 1007.3 hPa | 0 mm | - | 134 W/m² | - |
| 1778069466 | 13.33° C | 91% | 1007.3 hPa | 0 mm | - | 109 W/m² | - |
| 1778069339 | 13.33° C | 91% | 1007.3 hPa | 0 mm | - | 95 W/m² | - |
| 1778069101 | 13.33° C | 91% | 1007.4 hPa | 0 mm | - | 104 W/m² | - |
| 1778069032 | 13.33° C | 91% | 1007.4 hPa | 0 mm | - | 107 W/m² | - |
| 1778068850 | 13.33° C | 91% | 1007.4 hPa | 0 mm | - | 121 W/m² | - |
| 1778068795 | 13.33° C | 92% | 1007.5 hPa | 0 mm | - | 123 W/m² | - |
| 1778068728 | 13.33° C | 91% | 1007.4 hPa | 0 mm | - | 127 W/m² | - |
| 1778068668 | 13.33° C | 92% | 1007.4 hPa | 0 mm | - | 128 W/m² | - |
| 1778068175 | 12.78° C | 92% | 1007.5 hPa | 0 mm | - | 207 W/m² | - |
| 1778068106 | 12.78° C | 92% | 1007.4 hPa | 0 mm | - | 220 W/m² | - |
* Rain latest hour (hover to see other rain measurements)
** Current wind speed in m/s (hover to see current wind gust speed)